AKDT,Max TemperatureF,Mean TemperatureF,Min TemperatureF,Max Dew PointF,MeanDew PointF,Min DewpointF,Max Humidity, Mean Humidity, Min Humidity, Max Sea Level PressureIn, Mean Sea Level PressureIn, Min Sea Level PressureIn, Max VisibilityMiles, Mean VisibilityMiles, Min VisibilityMiles, Max Wind SpeedMPH, Mean Wind SpeedMPH, Max Gust SpeedMPH,PrecipitationIn, CloudCover, Events, WindDirDegrees
2013-3-1,24,22,21,16,15,14,80,72,68,29.84,29.84,29.83,10,10,10,16,13,22,0.00,0,,255
2013-3-2,,,,,,,,,,,,,,,,,,,,,,
2013-3-3,,,,,,,,,,,,,,,,,,,,,,
2013-3-4,,,,,,,,,,,,,,,,,,,,,,
2013-3-5,,,,,,,,,,,,,,,,,,,,,,
2013-3-6,,,,,,,,,,,,,,,,,,,,,,
2013-3-7,,,,,,,,,,,,,,,,,,,,,,
2013-3-8,,,,,,,,,,,,,,,,,,,,,,
2013-3-9,,,,,,,,,,,,,,,,,,,,,,
2013-3-9,,,,,,,,,,,,,,,,,,,,,,
2013-3-11,30,28,26,18,16,16,69,62,55,30.51,30.45,30.42,10,10,10,22,16,29,0.00,0,,266
2013-3-12,28,26,24,18,16,10,69,64,51,30.42,30.28,30.05,10,10,10,28,19,34,0.00,0,,262
2013-3-13,30,24,19,18,13,9,74,60,50,30.06,29.93,29.74,10,10,10,16,9,23,0.00,0,,259
2013-3-14,26,24,21,12,9,7,63,56,47,29.74,29.67,29.63,10,10,10,16,10,21,0.00,0,,259
2013-3-15,24,20,17,19,9,3,86,61,46,29.82,29.77,29.72,10,10,2,20,12,29,0.00,4,,278
2013-3-16,37,30,23,25,21,19,86,66,52,30.28,30.01,29.78,10,10,3,15,6,21,0.00,2,,256
2013-3-17,37,32,26,27,20,16,80,62,48,30.34,30.30,30.25,10,10,2,16,4,23,0.00,2,,249
2013-3-18,32,30,28,25,21,18,80,70,64,30.27,30.23,30.19,10,7,2,28,17,36,0.00,8,,261
2013-3-19,28,26,24,18,16,12,74,66,59,30.22,30.20,30.17,10,9,4,30,22,47,0.00,4,,260
2013-3-20,33,28,24,14,11,7,64,50,35,30.26,30.24,30.22,10,10,10,26,17,34,0.00,0,,261
2013-3-21,35,28,24,23,15,10,69,57,47,30.24,30.18,30.03,10,10,10,9,2,,0.00,1,,114
2013-3-22,37,34,30,28,25,21,81,69,56,29.99,29.95,29.92,10,10,10,6,2,,0.00,6,,343
2013-3-23,35,34,32,32,30,28,93,86,81,29.91,29.75,29.64,10,7,2,10,1,,0.00,8,,59
2013-3-24,33,30,26,28,24,19,86,80,74,29.75,29.72,29.69,10,6,3,16,10,26,0.00,8,,262
2013-3-25,21,16,12,10,8,3,73,67,58,30.06,30.03,29.97,10,9,2,22,15,44,0.00,4,,263
2013-3-26,28,20,12,21,11,1,74,65,54,30.10,30.06,30.03,10,10,10,10,2,,0.00,6,,53
2013-3-27,39,34,28,34,29,19,93,77,64,30.07,29.87,29.71,10,8,1,16,8,28,0.18,8,,105
2013-3-28,39,36,33,34,30,25,93,79,56,29.70,29.55,29.49,10,10,7,17,10,26,0.16,6,,125
2013-3-29,39,36,33,34,31,27,93,82,61,29.86,29.68,29.59,10,10,8,13,3,16,0.03,6,,98
2013-3-30,37,34,32,34,30,25,93,83,65,30.21,30.04,29.86,10,9,1,15,2,18,0.00,7,,290
2013-3-31,37,32,26,27,24,21,80,72,64,30.27,30.23,30.20,10,10,10,14,6,,0.00,0,,290